Location: Ostrava
(49.8330°N, 18.2830°E)
Time: 13:05:06
(UTC+02:00)

NOAA 19 - Visible Passes

Search period start: 28 August 2014 00:00
Search period end: 07 September 2014 00:00
Orbit: 843 x 863 km, 98.9° (Epoch: 06 September)

Date Brightness Start Highest point End Pass type
(mag) Time Alt. Az. Time Alt. Az. Time Alt. Az.
28 Aug 6.7 02:10:12 10° NE 02:14:56 28° E 02:16:34 24° ESE visible
28 Aug 5.5 03:50:33 10° N 03:55:58 54° WNW 03:58:37 29° SW visible
29 Aug 6.9 01:59:25 10° NE 02:03:46 23° E 02:05:18 20° ESE visible
29 Aug 5.3 03:39:26 10° N 03:44:58 65° WNW 03:47:21 34° SW visible
29 Aug 7.1 05:21:56 10° NNW 05:24:41 14° NW 05:27:26 10° W visible
30 Aug 7.2 01:48:43 10° NE 01:52:34 19° E 01:54:01 17° ESE visible
30 Aug 5.2 03:28:21 10° NNE 03:33:56 78° WNW 03:36:04 39° SSW visible
30 Aug 7.0 05:10:28 10° NNW 05:13:49 17° NW 05:17:09 10° W visible
31 Aug 7.4 01:38:10 10° NE 01:41:21 15° E 01:42:44 14° ESE visible
31 Aug 5.2 03:17:17 10° NNE 03:22:53 88° ESE 03:24:47 44° SSW visible
31 Aug 6.8 04:59:07 10° N 05:02:56 19° NW 05:06:45 10° W visible
01 Sep 7.6 01:27:54 10° ENE 01:30:07 12° E 01:31:27 11° E visible
01 Sep 5.3 03:06:14 10° NNE 03:11:50 74° ESE 03:13:30 46° S visible
01 Sep 6.6 04:47:49 10° N 04:52:02 23° WNW 04:55:33 13° W visible
02 Sep 5.5 02:55:13 10° NNE 03:00:45 61° ESE 03:02:12 45° SSE visible
02 Sep 6.4 04:36:33 10° N 04:41:07 27° WNW 04:44:16 16° WSW visible
03 Sep 5.8 02:44:14 10° NNE 02:49:39 50° E 02:50:55 42° SE visible
03 Sep 6.2 04:25:20 10° N 04:30:10 31° WNW 04:32:58 20° WSW visible
04 Sep 6.1 02:33:16 10° NNE 02:38:32 41° E 02:39:38 37° SE visible
04 Sep 6.0 04:14:09 10° N 04:19:13 37° WNW 04:21:41 25° WSW visible
05 Sep 6.4 02:22:21 10° NNE 02:27:23 34° E 02:28:21 32° ESE visible
05 Sep 5.7 04:02:59 10° N 04:08:14 44° WNW 04:10:24 30° WSW visible
06 Sep 6.6 02:11:29 10° NE 02:16:14 28° E 02:17:03 27° ESE visible
06 Sep 5.5 03:51:51 10° N 03:57:15 53° WNW 03:59:06 37° WSW visible
06 Sep 7.2 05:34:59 10° NNW 05:36:48 12° NW 05:38:37 10° WNW visible
